Location: Asheville, NC
(35.6000°N, 82.5500°W)
Time: 07:10:32
(UTC-04:00)

Vanguard 1 Rocket - Pass Details

Date: 11 December 2017
Orbit: 652 x 4225 km, 34.3° (Epoch: 18 July)

Event Time Altitude Azimuth Distance (km) Brightness Sun altitude
Rises 19:38:20 0° 263° (W) 5,072 12.5 -27.9°
Reaches altitude 10° 19:40:59 10° 263° (W) 4,416 11.8 -28.4°
Maximum altitude 19:54:30 86° 177° (S) 3,071 9.8 -31.1°
Enters shadow 20:03:50 46° 93° (E) 4,409 10.3 -33.0°
Drops below altitude 10° 20:19:16 10° 92° (E) 7,376 - -36.1°
Sets 20:25:21 0° 93° (E) 8,472 - -37.3°
